Weather History for Gallivare, Sweden

Change the Weather History Date:

Friday, January 18, 2013

  Actual Average Record
Temperature  
Mean Temperature 16 °F -  
Max Temperature 33 °F - - ()
Min Temperature 0 °F - - ()
Degree Days  
Heating Degree Days 48    
Moisture  
Dew Point 13 °F    
Average Humidity 87    
Maximum Humidity 100    
Minimum Humidity 75    
Precipitation  
Precipitation 0.00 in - - ()
Sea Level Pressure  
Sea Level Pressure 29.74 in    
Wind  
Wind Speed 4 mph ()    
Max Wind Speed 15 mph    
Max Gust Speed -    
Visibility 6.2 miles    
Events      
T = Trace of Precipitation, MM = Missing Value Source: Averaged Metar Reports

Daily Weather History Graph

Daily Weather History Graph

Search for Another Location

Airport:

Trip Planner

Search our weather history database for the weather conditions in past years. The results will help you decide how hot, cold, wet, or windy it might be!

Date:

Astronomy

Jan. 18, 2013 Rise Set
Actual Time 9:38 AM CET 1:57 PM CET
Civil Twilight 8:14 AM CET 3:20 PM CET
Nautical Twilight 7:00 AM CET 4:34 PM CET
Astronomical Twilight 5:55 AM CET 5:39 PM CET
Moon 9:12 AM CET 12:13 AM CET
Length of Visible Light 7h 06m
Length of Day
4h 19m
Waxing Crescent, 45% of the Moon is Illuminated
Jan 18
Waxing Crescent
Jan 19
First Quarter
Jan 27
Full
Feb 3
Last Quarter
Feb 10
New

Hourly Weather History & Observations

Time (CET) Temp. Windchill Dew Point Humidity Pressure Visibility Wind Dir Wind Speed Gust Speed Precip Events Conditions
12:20 AM 5.0 °F -4.1 °F -0.4 °F 78% 29.95 in 6.2 mi WNW 4.6 mph - N/A   Unknown
12:50 AM -0.4 °F -8.3 °F -4.0 °F 85% 29.92 in 6.2 mi WNW 3.5 mph - N/A   Unknown
1:20 AM -0.4 °F -8.3 °F -4.0 °F 85% 29.92 in 6.2 mi WNW 3.5 mph - N/A   Unknown
1:50 AM -0.4 °F -8.3 °F -4.0 °F 85% 29.92 in 6.2 mi West 3.5 mph - N/A   Unknown
2:20 AM 1.4 °F -6.2 °F -0.4 °F 92% 29.89 in 6.2 mi NW 3.5 mph - N/A   Unknown
2:50 AM 3.2 °F -4.2 °F -0.4 °F 85% 29.89 in 6.2 mi WNW 3.5 mph - N/A   Partly Cloudy
3:50 AM 5.0 °F - 1.4 °F 85% 29.86 in 6.2 mi Calm Calm - N/A   Unknown
4:20 AM 6.8 °F - 3.2 °F 85% 29.86 in 6.2 mi Variable 2.3 mph - N/A   Unknown
4:50 AM 6.8 °F - 3.2 °F 85% 29.83 in - Calm Calm - N/A   Clear
5:20 AM 8.6 °F - 5.0 °F 85% 29.80 in - Variable 2.3 mph - N/A   Clear
5:50 AM 6.8 °F - 3.2 °F 85% 29.80 in - Variable 2.3 mph - N/A   Clear
6:20 AM 6.8 °F - 3.2 °F 85% 29.80 in - Calm Calm - N/A   Clear
6:50 AM 6.8 °F - 3.2 °F 85% 29.80 in - Calm Calm - N/A   Clear
7:20 AM 10.4 °F - 8.6 °F 92% 29.77 in - Variable 2.3 mph - N/A   Clear
7:50 AM 8.6 °F - 6.8 °F 92% 29.77 in - Calm Calm - N/A   Clear
8:20 AM 8.6 °F - 6.8 °F 92% 29.77 in - Variable 1.2 mph - N/A   Clear
8:50 AM 8.6 °F 2.0 °F 5.0 °F 85% 29.77 in - NW 3.5 mph - N/A   Clear
9:20 AM 10.4 °F - 8.6 °F 92% 29.74 in - West 2.3 mph - N/A   Clear
9:50 AM 6.8 °F - 5.0 °F 92% 29.77 in - Variable 2.3 mph - N/A   Clear
10:20 AM 10.4 °F - 8.6 °F 92% 29.74 in - Calm Calm - N/A   Clear
10:50 AM 12.2 °F - 10.4 °F 92% 29.74 in - Variable 2.3 mph - N/A   Clear
11:20 AM 10.4 °F - 8.6 °F 92% 29.74 in - Variable 2.3 mph - N/A   Clear
11:50 AM 12.2 °F - 12.2 °F 100% 29.74 in - Variable 2.3 mph - N/A   Clear
12:20 PM 12.2 °F 6.1 °F 10.4 °F 92% 29.74 in - WNW 3.5 mph - N/A   Clear
12:50 PM 12.2 °F - 10.4 °F 92% 29.71 in - Variable 2.3 mph - N/A   Clear
1:20 PM 14.0 °F - 10.4 °F 86% 29.71 in - Variable 2.3 mph - N/A   Clear
1:50 PM 12.2 °F - 10.4 °F 92% 29.71 in - Variable 1.2 mph - N/A   Clear
2:20 PM 10.4 °F - 8.6 °F 92% 29.71 in - Calm Calm - N/A   Clear
2:50 PM 15.8 °F - 14.0 °F 93% 29.71 in - Variable 1.2 mph - N/A   Clear
3:20 PM 19.4 °F 14.3 °F 17.6 °F 93% 29.71 in - NW 3.5 mph - N/A   Clear
3:50 PM 23.0 °F 17.0 °F 21.2 °F 93% 29.71 in - WNW 4.6 mph - N/A   Clear
4:20 PM 19.4 °F 10.4 °F 17.6 °F 93% 29.68 in - NW 6.9 mph - N/A   Clear
4:50 PM 21.2 °F 16.4 °F 17.6 °F 86% 29.71 in - WNW 3.5 mph - N/A   Clear
5:20 PM 32.0 °F 24.2 °F 28.4 °F 87% 29.68 in - West 9.2 mph - N/A   Clear
5:50 PM 32.0 °F 26.4 °F 26.6 °F 80% 29.68 in - West 5.8 mph - N/A   Clear
6:20 PM 32.0 °F 25.6 °F 28.4 °F 87% 29.68 in - WSW 6.9 mph - N/A   Clear
6:50 PM 33.8 °F 25.8 °F 26.6 °F 75% 29.68 in - WSW 10.4 mph - N/A   Clear
7:20 PM 32.0 °F 24.8 °F 26.6 °F 80% 29.65 in - WSW 8.1 mph - N/A   Clear
8:20 PM 33.8 °F 25.3 °F 26.6 °F 75% 29.65 in - West 11.5 mph - N/A   Clear
8:50 PM 32.0 °F 22.1 °F 26.6 °F 80% 29.65 in - West 13.8 mph - N/A   Clear
9:20 PM 32.0 °F 23.0 °F 26.6 °F 80% 29.62 in - West 11.5 mph - N/A   Clear
9:50 PM 32.0 °F 23.0 °F 28.4 °F 87% 29.62 in - West 11.5 mph - N/A   Clear
10:20 PM 32.0 °F 22.5 °F 28.4 °F 87% 29.62 in 6.2 mi West 12.7 mph - N/A   Unknown
10:50 PM 33.8 °F 23.9 °F 28.4 °F 81% 29.59 in 6.2 mi West 15.0 mph - N/A   Unknown
11:20 PM 33.8 °F 24.3 °F 28.4 °F 81% 29.59 in 6.2 mi West 13.8 mph - N/A   Unknown
11:50 PM 33.8 °F 25.8 °F 26.6 °F 75% 29.59 in 6.2 mi West 10.4 mph - N/A   Unknown